SL-8 R/B (21876 NORAD) Tracking and Keplerian Element Data

This shows tracking and keplerian element data for the satellite.

Feedback or suggestion? Click here.




ElementValue
Catalog21876
NameSL-8 R/B
Epoch Orbit32556
Epoch Day198.94292613
Epoch Year2018
RAAN183.0714
Inclination82.9259
Eccentricity0.0035136
Argument of Perigee12.0073
Mean Anonmoly44.3198
Mean Motion13.7562745
Decay Rate6.4E-07
L11 21876U 92008B 18198.94292613 .00000064 00000-0 50407-4 0 9996
L22 21876 82.9259 183.0714 0035136 12.0073 44.3198 13.75627450325566

Live tracking and technical data element details for SL-8 R/B (NORAD 21876). SL-8 R/B can be tracked NOW for your location showing map with azimuth and elevation plus other details from your city location.

Track the satellite on the map from your city or location and see movement details for azimuth, elevation, latitude, longitude, range, height, and movement on the map or in text.







IsCatalogInMostPopularTable: catalog: 21876, numindb: 19
Update: records affected: 1



GetName: 21876 SL-8 R/B

Hit Count: updated at: Thu, 19 Jul 2018 03:40:37 GMT